Change the Weather History Date:

Sunday, January 5, 2014

  Actual Average Record
Temperature  
Mean Temperature 41 °F 31 °F  
Max Temperature 43 °F 35 °F 46 °F (1979)
Min Temperature 39 °F 26 °F 3 °F (1949)
Degree Days  
Heating Degree Days 24 34  
Month to date heating degree days 139 170  
Since 1 July heating degree days 3586 4011  
Cooling Degree Days 0    
Month to date cooling degree days 0  
Year to date cooling degree days 0  
Moisture  
Dew Point 39 °F    
Average Humidity 0    
Maximum Humidity 0    
Minimum Humidity 0    
Precipitation  
Precipitation 0.45 in 0.28 in 2.57 in (1999)
Month to date precipitation 2.38 1.42  
Year to date precipitation 2.38 1.42  
Snow  
Snow 0.00 in 0.30 in 11.00 in (1970)
Month to date snowfall T 1.8  
Since 1 July snowfall 18.9 23.1  
Snow Depth 0.00 in    
Sea Level Pressure  
Sea Level Pressure 29.46 in    
Wind  
Wind Speed 13 mph (SE)    
Max Wind Speed 24 mph    
Max Gust Speed 30 mph    
Visibility 7 miles    
Events Rain    
T = Trace of Precipitation, MM = Missing Value Source: NWS Daily Summary

Daily Weather History Graph

Daily Weather History Graph

Search for Another Location

Airport or City:

Trip Planner

Search our weather history database for the weather conditions in past years. The results will help you decide how hot, cold, wet, or windy it might be!

Date:

Astronomy

Jan. 05, 2014 Rise Set
Actual Time 9:51 AM AKST 4:40 PM AKST
Civil Twilight 9:01 AM AKST 5:29 PM AKST
Nautical Twilight 8:10 AM AKST 6:21 PM AKST
Astronomical Twilight 7:22 AM AKST 7:08 PM AKST
Moon 11:25 AM AKST (1/5) 11:39 PM AKST (1/5)
Length of Visible Light 8h 28m
Length of Day
6h 48m
Waxing Crescent, 26% of the Moon is Illuminated
Jan 5
Waxing Crescent
Jan 7
First Quarter
Jan 15
Full
Jan 23
Last Quarter
Jan 30
New

Hourly Weather History & Observations

Time (AKST) Temp. Windchill Dew Point Humidity Pressure Visibility Wind Dir Wind Speed Gust Speed Precip Events Conditions
12:01 AM 39.2 °F 37.0 °F - N/A% 29.21 in 2.0 mi SE 3.5 mph - 0.00 in Rain Light Rain
12:43 AM 39.2 °F 34.2 °F 39.2 °F 100% 29.21 in 4.0 mi ESE 6.9 mph - 0.01 in Rain Light Rain
12:53 AM 39.9 °F 32.9 °F 39.9 °F 100% 29.22 in 5.0 mi SE 11.5 mph - 0.01 in Rain Light Rain
1:53 AM 43.0 °F 35.7 °F 42.1 °F 97% 29.26 in 10.0 mi South 15.0 mph 23.0 mph 0.00 in   Mostly Cloudy
2:53 AM 42.1 °F 36.6 °F 42.1 °F 100% 29.28 in 10.0 mi South 9.2 mph - N/A   Mostly Cloudy
3:53 AM 41.0 °F 34.7 °F 41.0 °F 100% 29.30 in 10.0 mi South 10.4 mph - N/A   Mostly Cloudy
4:53 AM 41.0 °F 33.5 °F 41.0 °F 100% 29.31 in 10.0 mi SSE 13.8 mph - 0.00 in   Overcast
5:53 AM 41.0 °F 33.1 °F 39.9 °F 96% 29.34 in 10.0 mi SSE 15.0 mph - N/A   Scattered Clouds
6:53 AM 41.0 °F 35.2 °F 39.0 °F 93% 29.37 in 7.0 mi SE 9.2 mph - 0.00 in   Mostly Cloudy
7:53 AM 41.0 °F 34.3 °F 39.0 °F 93% 29.39 in 8.0 mi SE 11.5 mph - 0.00 in   Overcast
8:53 AM 41.0 °F 34.3 °F 39.0 °F 93% 29.42 in 6.0 mi SE 11.5 mph - 0.00 in Rain Light Rain
9:53 AM 41.0 °F 33.5 °F 39.0 °F 93% 29.46 in 10.0 mi SE 13.8 mph - 0.00 in   Overcast
10:53 AM 41.0 °F 34.3 °F 39.0 °F 93% 29.49 in 10.0 mi SE 11.5 mph - 0.01 in   Overcast
11:53 AM 41.0 °F 36.4 °F 37.9 °F 89% 29.52 in 7.0 mi SE 6.9 mph - 0.00 in   Overcast
12:53 PM 41.0 °F 34.3 °F 37.0 °F 86% 29.54 in 10.0 mi SSE 11.5 mph - N/A   Mostly Cloudy
1:53 PM 42.1 °F 36.1 °F 37.0 °F 82% 29.56 in 10.0 mi South 10.4 mph - N/A   Mostly Cloudy
2:53 PM 42.1 °F 36.1 °F 36.0 °F 79% 29.57 in 10.0 mi SE 10.4 mph - N/A   Mostly Cloudy
3:53 PM 39.9 °F 34.5 °F 37.9 °F 93% 29.57 in 5.0 mi SE 8.1 mph - N/A   Mostly Cloudy
3:56 PM 39.2 °F 33.0 °F 37.4 °F 93% 29.57 in 5.0 mi SE 9.2 mph - N/A   Mostly Cloudy
4:35 PM 39.2 °F 33.0 °F 39.2 °F 100% 29.57 in 3.0 mi ESE 9.2 mph - 0.00 in Rain Light Rain
4:53 PM 39.9 °F 33.9 °F 39.0 °F 97% 29.57 in 3.0 mi ESE 9.2 mph - 0.00 in   Overcast
5:11 PM 39.2 °F 33.0 °F 39.2 °F 100% 29.56 in 2.0 mi East 9.2 mph - 0.01 in Rain Light Rain
5:53 PM 39.9 °F 33.9 °F 39.9 °F 100% 29.56 in 2.0 mi ESE 9.2 mph - 0.03 in Rain Light Rain
6:20 PM 41.0 °F 38.0 °F 39.2 °F 93% 29.55 in 3.0 mi SE 4.6 mph - 0.00 in   Overcast
6:53 PM 42.1 °F 34.9 °F 39.9 °F 92% 29.55 in 3.0 mi SE 13.8 mph 17.3 mph 0.01 in Rain Light Rain
7:53 PM 42.1 °F 33.1 °F 39.9 °F 92% 29.55 in 7.0 mi ESE 20.7 mph 28.8 mph 0.02 in Rain Light Rain
8:53 PM 42.1 °F 33.3 °F 39.9 °F 92% 29.54 in 7.0 mi ESE 19.6 mph - 0.05 in Rain Light Rain
9:53 PM 41.0 °F 31.6 °F 39.9 °F 96% 29.53 in 4.0 mi ESE 20.7 mph - 0.06 in Rain Rain
10:31 PM 41.0 °F 31.6 °F 39.2 °F 93% 29.52 in 3.0 mi ESE 20.7 mph - 0.09 in Rain Rain
10:53 PM 41.0 °F 31.6 °F 39.9 °F 96% 29.52 in 4.0 mi ESE 20.7 mph - 0.13 in Rain Rain
11:53 PM 42.1 °F 35.7 °F 39.9 °F 92% 29.52 in 7.0 mi ESE 11.5 mph - 0.13 in Rain Light Rain